Probability
0 0 0 1 2 2 1 0 0 0 0 0 0 0 0 0 1 1 1 0 0 1 2 3 4 5 6 6 6 6 7 7 7 7 6 5 3 1 2 3 3 3 3
0 0 0 0 1 1 0 0 0 0 0 0 0 0 0 0 0 0 0 0 0 1 2 4 4 5 6 7 7 7 8 9 9 8 7 5 2 1 2 3 3 2 2
1 0 0 0 0 0 0 0 0 0 0 0 0 0 0 0 0 0 0 0 0 0 1 3 4 5 6 7 8 9 9 10 10 9 7 6 3 2 2 3 3 2 1
1 0 0 0 0 0 0 0 0 0 0 0 0 0 0 0 0 0 0 0 0 0 1 2 4 5 6 7 7 9 10 9 9 9 8 7 5 3 3 3 3 1 0
1 0 0 0 0 0 0 0 0 0 0 0 0 0 0 0 0 0 0 0 0 0 0 2 3 4 6 6 7 7 8 7 7 6 6 6 5 4 3 3 2 1 0
0 0 0 0 0 0 0 0 0 0 0 0 0 0 0 0 0 0 0 0 0 0 0 1 2 3 5 6 6 7 7 6 5 4 4 4 5 4 3 3 2 0 0
1 1 0 0 0 0 0 0 0 0 0 0 0 0 0 0 0 0 0 0 0 0 0 0 1 1 3 3 4 6 6 6 5 4 4 4 3 3 2 2 1 0 0
2 1 0 0 0 0 0 0 0 0 0 0 0 0 0 0 0 0 0 0 0 0 0 0 0 0 1 1 1 2 3 4 4 5 5 3 2 1 1 1 1 0 0
1 1 0 0 1 1 1 0 0 0 0 0 0 0 0 0 0 0 0 0 0 0 0 0 0 0 0 0 0 0 0 1 3 4 4 2 1 0 0 0 0 0 0
0 0 0 1 2 2 2 1 0 0 0 0 0 0 0 0 0 0 0 0 0 0 0 0 0 0 0 0 0 0 0 0 1 2 2 1 1 1 1 2 2 2 1
0 0 0 1 2 3 2 1 0 0 0 0 0 0 0 0 0 0 0 0 0 0 0 0 0 0 0 0 0 0 0 0 0 1 1 1 1 2 3 4 4 4 4
0 0 0 0 1 1 2 1 0 0 0 0 0 1 1 1 0 0 0 0 0 0 0 0 0 0 0 0 0 0 0 0 0 0 0 0 2 3 3 4 4 5 5
0 0 0 0 0 1 2 1 0 0 1 1 0 1 1 2 2 1 1 0 0 0 0 0 0 0 0 0 0 0 0 0 0 0 0 0 1 2 2 3 3 4 4
0 0 0 0 0 1 1 1 0 0 1 1 0 0 1 2 2 2 1 0 0 0 0 0 0 0 0 0 0 1 1 0 0 0 0 0 0 1 1 1 2 2 2
0 0 0 0 0 1 2 2 1 0 1 1 0 0 0 1 1 1 1 0 0 1 1 0 0 0 0 0 0 1 2 1 0 0 0 0 0 0 0 0 0 1 1
0 0 0 0 1 2 2 2 1 0 0 0 0 0 0 0 1 0 0 0 0 1 1 0 1 1 1 0 0 1 1 1 0 0 0 0 0 0 0 0 0 0 0
0 0 1 1 2 3 3 2 1 1 1 0 0 0 0 0 0 0 0 0 0 1 1 0 1 1 1 0 0 0 0 0 0 0 0 0 0 0 0 0 0 0 0
0 1 2 3 4 5 5 4 3 3 1 1 1 1 0 0 0 0 0 0 0 0 1 1 1 1 1 0 0 0 0 0 0 0 0 0 0 0 0 0 0 0 0
1 2 4 5 6 6 6 6 5 4 2 1 2 2 0 0 0 0 0 0 0 0 1 2 2 2 2 1 0 0 0 0 0 0 0 0 0 0 0 0 0 0 0
3 3 5 6 7 6 6 6 6 5 2 2 2 2 1 1 1 0 0 0 0 0 1 1 2 3 3 2 1 0 0 0 0 1 1 0 1 1 1 0 0 0 0
3 3 5 7 7 7 7 6 6 6 4 4 4 4 3 3 2 0 0 0 0 0 0 0 1 2 4 4 2 1 0 0 1 2 2 1 2 2 1 0 0 0 0
4 4 5 7 8 8 7 6 6 6 6 6 6 6 6 5 3 1 0 0 0 0 0 1 2 3 4 5 5 3 1 1 1 3 3 3 3 3 2 1 0 0 0
7 5 5 7 9 9 7 6 6 7 8 8 7 6 6 6 5 4 2 0 0 0 1 3 4 5 4 5 5 5 4 3 3 3 3 4 5 5 5 5 2 0 0
9 8 7 7 8 7 6 5 5 6 7 7 7 6 6 6 6 6 4 2 1 0 0 2 4 4 3 3 4 5 5 4 3 3 3 4 5 7 8 8 5 1 0
10 9 9 8 8 6 5 3 3 6 8 8 7 6 6 6 5 5 4 3 2 1 1 1 2 3 3 2 2 4 5 5 4 4 4 4 5 7 8 9 6 3 2
10 10 10 9 8 7 6 3 3 6 9 9 7 6 6 6 5 4 4 4 3 2 2 2 2 2 3 2 1 3 6 6 5 4 5 6 6 7 8 9 8 5 4
Wind_Speed
0 1 1 1 1 1 1 1 1 1 1 1 1 1 1 1 1 1 1 6 8 8 9 9 9 9 9 9 8 8 9 9 9 9 11 11 11 11 10 10 10 9 9
0 0 1 1 1 1 1 1 1 1 1 1 1 1 1 1 1 1 1 3 7 7 8 8 9 9 9 9 9 9 9 9 9 9 10 12 12 11 11 11 10 9 9
0 0 0 0 1 1 1 0 1 1 1 1 1 1 0 0 1 1 1 1 2 6 8 8 8 8 8 8 9 9 9 8 8 9 9 10 11 11 11 10 10 10 9
0 0 0 1 1 1 1 0 0 1 1 1 1 1 0 0 1 1 1 1 2 3 5 8 8 8 8 8 8 8 8 8 8 8 9 10 10 9 10 10 10 9 9
0 0 0 1 1 1 1 1 1 0 0 1 1 1 1 0 1 1 1 2 2 2 2 5 7 7 8 8 7 7 8 8 9 9 9 10 10 9 9 9 9 9 8
1 1 1 1 1 1 1 1 1 1 0 0 1 1 1 1 0 1 2 2 2 3 3 3 3 5 8 8 7 8 8 9 9 9 10 10 10 10 10 10 10 9 9
2 1 1 1 1 1 0 0 0 1 1 0 1 1 2 1 1 1 1 2 2 3 3 3 3 3 3 6 7 8 9 9 9 9 10 11 11 11 11 11 10 10 9
2 1 1 1 1 1 2 1 1 0 0 1 1 1 2 2 2 1 1 1 2 2 3 4 4 4 4 3 4 8 8 9 9 9 10 10 10 10 10 11 11 10 10
2 1 1 1 1 1 0 1 0 0 0 0 0 1 1 1 2 2 1 1 2 2 3 3 4 5 5 4 4 6 8 8 8 9 9 9 9 9 9 10 10 10 10
2 2 1 1 1 1 1 1 1 0 0 0 0 0 1 2 1 1 2 1 2 3 3 3 3 3 4 3 4 6 7 7 8 9 9 9 9 10 10 10 11 11 11
2 2 1 1 1 1 1 1 1 1 0 0 0 0 1 0 1 1 2 2 2 2 3 3 2 2 3 3 3 4 6 7 7 8 9 9 9 10 11 11 11 11 11
2 2 2 1 1 1 1 1 1 1 1 0 0 0 1 1 1 2 2 2 2 2 2 2 2 3 3 3 4 4 5 5 6 6 7 8 9 9 10 10 10 11 11
1 2 2 2 1 1 1 1 1 1 1 0 0 1 1 1 1 1 2 2 2 2 2 2 2 2 3 3 3 5 5 5 5 5 5 6 7 7 8 9 9 10 10
1 1 1 2 2 2 2 1 1 1 1 1 1 1 0 1 1 1 1 1 1 2 2 3 2 2 3 3 3 5 4 5 5 5 5 5 6 7 7 7 8 8 8
1 1 1 1 2 1 1 1 1 1 1 1 1 1 1 1 1 1 1 1 1 2 3 2 2 2 3 3 3 3 3 4 5 6 6 6 7 7 7 7 7 7 7
1 1 1 2 2 2 1 1 1 1 1 1 1 1 1 1 1 1 1 1 1 2 3 2 3 3 2 3 3 3 4 5 5 6 6 6 7 7 7 7 7 8 7
1 1 1 1 1 2 2 1 1 1 1 1 1 1 2 2 1 1 1 1 1 1 3 3 2 2 2 2 2 2 3 3 4 6 6 7 7 7 7 8 8 8 8
1 1 1 1 1 1 1 1 2 1 1 2 2 1 2 2 2 2 1 2 2 2 2 3 2 2 2 2 2 2 2 3 4 5 7 7 7 7 7 8 8 8 8
1 1 1 1 2 2 2 2 2 2 2 3 3 2 3 2 2 2 2 2 2 2 2 2 3 2 2 2 2 2 3 3 4 4 7 7 8 8 7 8 8 8 8
1 2 2 2 2 2 2 2 2 2 3 3 3 3 3 3 3 3 3 3 2 2 2 2 3 2 2 2 2 2 3 3 4 4 4 5 6 8 8 8 9 9 9
1 1 2 2 3 2 2 2 2 3 3 3 3 3 4 4 4 3 3 3 2 2 2 2 3 2 2 2 3 2 4 3 4 3 3 4 4 4 5 7 9 9 9
1 1 2 2 3 3 4 4 3 3 3 4 4 4 4 4 5 5 5 4 4 4 3 3 3 4 4 4 3 4 3 3 4 3 3 4 4 5 5 5 7 9 9
2 2 2 2 3 4 5 5 4 3 3 4 4 4 4 4 4 4 5 5 5 6 6 4 5 5 5 4 4 4 4 4 5 2 2 4 3 5 4 5 8 10 10
2 2 3 3 3 5 6 5 5 3 3 4 4 4 4 5 4 4 4 4 5 5 6 5 5 6 6 5 5 5 5 4 4 3 3 4 3 4 4 4 7 10 10
2 2 2 3 4 5 6 5 3 3 3 4 4 4 4 5 6 4 3 4 5 5 5 7 8 7 7 6 4 3 3 3 4 3 3 3 3 3 3 4 5 8 9
3 3 3 3 3 4 6 5 4 2 3 4 3 4 5 5 6 4 3 4 5 6 5 4 4 5 5 5 5 5 5 4 3 3 3 4 3 2 3 3 3 3 4
Wind_Direction
19 6 352 0 342 339 348 336 336 338 341 330 295 230 218 197 190 187 193 193 191 187 189 189 188 186 191 195 197 203 205 203 202 203 203 202 200 198 195 194 192 189 190
215 314 329 340 330 327 306 267 287 325 338 336 334 302 236 216 178 184 188 190 190 191 193 194 194 194 198 201 201 204 206 206 205 207 205 203 201 197 195 195 193 193 194
242 234 277 314 313 314 321 342 342 2 358 360 350 336 288 256 191 176 166 165 187 199 198 202 202 200 202 205 207 207 208 209 206 207 202 197 198 199 197 196 196 196 198
293 57 7 329 328 3 20 12 19 25 8 1 352 346 333 242 218 183 165 171 184 200 206 209 206 204 207 213 211 209 208 210 208 205 199 195 193 194 195 195 195 196 196
342 134 320 314 2 51 31 347 19 55 16 356 348 356 0 275 247 227 204 200 196 199 207 218 211 209 213 215 215 215 213 213 210 207 205 200 198 197 197 195 194 192 193
14 47 11 347 20 47 26 10 354 11 354 326 353 9 360 323 286 244 232 217 206 207 212 223 219 222 223 222 222 223 223 220 214 209 207 205 203 199 196 195 192 193 195
27 60 35 21 24 32 349 7 56 20 8 30 57 11 355 346 325 263 236 219 220 219 214 222 224 226 229 224 225 228 230 224 219 214 211 208 206 201 197 195 193 192 196
26 42 44 35 25 23 20 16 54 67 358 50 101 60 352 344 324 294 255 226 228 221 222 226 230 229 232 230 226 229 234 227 222 218 213 207 204 202 199 196 194 195 199
22 24 29 37 30 48 359 343 35 114 245 317 139 142 148 259 307 317 279 250 238 231 238 237 234 234 230 229 234 235 234 229 224 221 213 206 201 200 200 198 199 201 204
9 11 21 38 41 30 353 318 9 291 223 301 294 220 197 187 203 303 315 284 255 244 243 242 241 240 234 228 227 226 232 230 224 220 213 208 204 203 202 205 208 209 210
3 4 18 33 30 5 338 338 1 0 297 254 246 232 216 218 205 217 284 309 299 262 244 238 236 240 237 233 232 228 223 225 227 221 212 209 208 207 207 211 216 216 216
1 4 19 21 11 1 345 339 4 24 7 342 313 186 184 203 212 205 236 277 288 285 264 237 232 235 230 230 235 230 220 219 223 220 216 213 213 212 211 215 219 221 222
356 350 9 15 14 1 2 4 21 2 353 1 279 259 236 242 232 208 213 253 272 288 293 256 238 236 235 227 237 236 229 224 222 220 221 219 215 215 216 217 221 224 226
308 331 359 9 11 13 11 7 2 332 354 340 324 306 284 282 254 226 215 217 268 287 282 279 268 242 245 235 240 233 235 228 222 218 220 221 219 218 220 217 221 225 226
313 349 354 357 353 359 358 7 359 338 345 333 317 313 297 291 289 266 242 226 214 259 274 269 267 261 247 235 236 228 228 225 217 215 216 220 221 218 216 215 216 218 217
330 348 353 347 342 341 341 353 342 332 358 330 305 335 320 300 294 274 252 250 237 230 258 261 248 261 251 245 232 228 230 221 219 219 222 221 221 218 215 215 214 213 212
312 308 305 324 331 341 344 336 314 324 323 317 325 333 306 296 296 287 269 252 243 227 251 275 263 273 242 254 255 236 227 225 232 226 225 224 221 222 218 216 215 214 214
283 279 290 313 313 320 318 307 305 304 276 279 286 290 294 295 290 283 265 259 253 239 237 269 278 267 253 255 250 241 241 236 240 234 229 226 225 225 223 221 218 217 218
284 298 305 296 300 300 298 286 276 278 276 273 268 262 271 273 279 275 265 264 261 257 246 260 277 264 258 270 258 258 255 250 248 239 229 229 229 229 227 224 220 218 218
267 282 287 285 283 283 287 285 285 282 282 284 281 271 263 253 255 255 255 258 257 255 254 262 275 274 263 272 250 253 261 248 252 251 241 237 232 230 230 229 225 220 217
272 269 279 295 295 289 292 293 283 275 276 284 287 281 273 274 265 254 260 252 240 246 254 260 268 277 267 256 247 241 252 262 250 235 243 241 234 235 230 227 225 221 217
291 293 285 291 298 298 309 300 283 271 266 270 280 283 281 275 278 268 265 254 231 230 241 247 256 263 264 255 250 241 245 256 259 219 226 251 231 237 235 228 220 216 214
271 282 287 287 288 294 303 302 289 271 269 271 273 279 285 291 283 280 274 264 251 244 232 229 247 256 260 250 246 250 240 243 250 232 219 252 234 239 237 230 217 213 212
255 264 281 282 287 299 306 299 293 273 278 280 276 273 276 290 291 285 279 275 267 262 247 237 244 254 259 256 240 245 252 258 264 249 211 247 248 247 252 237 216 211 211
263 267 277 281 288 299 309 304 295 278 284 288 288 291 287 290 297 294 275 276 281 281 268 254 249 257 265 265 256 252 248 248 262 254 208 228 246 258 254 242 223 212 213
263 277 287 284 285 294 309 309 295 278 291 297 302 303 296 295 299 291 267 269 278 284 293 293 277 275 272 265 246 232 233 238 249 252 215 210 227 236 260 238 223 215 212